Location: *
(51.5000°N, 0.1100°W)
Time: 18:24:18
(UTC+00:00)

ATLAS 2AS CENTAUR R/B - Pass Details

Date: 25 May 2024
Orbit: 1017 x 1194 km, 63.7° (Epoch: 16 June)

Event Time Altitude Azimuth Distance (km) Brightness Sun altitude
Rises 23:58:31 0° 303° (WNW) 3,964 6.1 -17.5°
Reaches altitude 10° 00:01:34 10° 312° (NW) 2,975 5.6 -17.5°
Maximum altitude 00:07:55 35° 17° (NNE) 1,675 4.4 -17.5°
Drops below altitude 10° 00:14:02 10° 82° (E) 2,861 5.1 -17.4°
Sets 00:16:53 0° 91° (E) 3,793 5.6 -17.4°
